Orbital Elements at Epoch 2459200.5 (2020-Dec-17.0) TDB
Reference: JPL 16 (heliocentric ecliptic J2000)
Element | Value | Uncertainty (1-sigma) | Units |
e | .02943123338500987 | 7.5164e-08 | |
a | 2.876271434797715 | 3.3348e-08 | au |
q | 2.791619218921547 | 2.2989e-07 | au |
i | 5.355547786420114 | 9.3719e-06 | deg |
node | 306.8933308332894 | 6.5073e-05 | deg |
peri | 340.2106829571428 | 0.00016433 | deg |
M | 293.5141991816027 | 0.0001506 | deg |
tp | 2459529.555862421937 (2021-Nov-11.05586242) | 0.00074412 | TDB |
period | 1781.735483572883 4.88 | 3.0987e-05 8.484e-08 | d yr |
n | .2020501939368117 | 3.5139e-09 | deg/d |
Q | 2.960923650673884 | 3.433e-08 | au |
|
| | Orbit Determination Parameters
Additional Information
|